Weather History for Price, UT

Change the Weather History Date:

Sunday, December 9, 2012

  Actual Average Record
Temperature  
Mean Temperature 22 °F -  
Max Temperature 30 °F 34 °F 54 °F (1973)
Min Temperature 15 °F 16 °F 1 °F (2013)
Degree Days  
Heating Degree Days 42    
Moisture  
Dew Point 3 °F    
Average Humidity 42    
Maximum Humidity 63    
Minimum Humidity 20    
Precipitation  
Precipitation 0.00 in - - ()
Sea Level Pressure  
Sea Level Pressure 30.24 in    
Wind  
Wind Speed 12 mph (NNW)    
Max Wind Speed 18 mph    
Max Gust Speed 28 mph    
Visibility 10 miles    
Events      
Averages and records for this station are not official NWS values.
T = Trace of Precipitation, MM = Missing Value Source: NWS Daily Summary

Daily Weather History Graph

Daily Weather History Graph

Search for Another Location

Airport:

Trip Planner

Search our weather history database for the weather conditions in past years. The results will help you decide how hot, cold, wet, or windy it might be!

Date:

Astronomy

Dec. 09, 2012 Rise Set
Actual Time 7:32 AM MST 4:58 PM MST
Civil Twilight 7:02 AM MST 5:29 PM MST
Nautical Twilight 6:28 AM MST 6:02 PM MST
Astronomical Twilight 5:55 AM MST 6:35 PM MST
Moon 3:09 AM MST (12/9) 2:07 PM MST (12/9)
Length of Visible Light 10h 26m
Length of Day
9h 26m
Waning Crescent, 18% of the Moon is Illuminated
Dec 9
Waning Crescent
Dec 13
New
Dec 19
First Quarter
Dec 28
Full
Jan 4
Last Quarter

Hourly Weather History & Observations

Time (MST) Temp. Windchill Dew Point Humidity Pressure Visibility Wind Dir Wind Speed Gust Speed Precip Events Conditions
12:53 AM 27.0 °F 14.3 °F 10.0 °F 49% 30.00 in 10.0 mi NW 17.3 mph 23.0 mph N/A   Overcast
1:53 AM 26.1 °F 12.7 °F 8.1 °F 47% 30.03 in 10.0 mi NW 18.4 mph 27.6 mph N/A   Overcast
2:53 AM 26.1 °F 15.0 °F 8.1 °F 47% 30.04 in 10.0 mi NW 12.7 mph - N/A   Overcast
3:53 AM 23.0 °F 17.0 °F 12.0 °F 63% 30.09 in 10.0 mi NNW 4.6 mph - N/A   Overcast
4:53 AM 24.1 °F 13.7 °F 10.0 °F 55% 30.10 in 10.0 mi WNW 10.4 mph - N/A   Overcast
5:53 AM 23.0 °F 17.0 °F 7.0 °F 50% 30.14 in 10.0 mi NW 4.6 mph - N/A   Overcast
6:53 AM 19.0 °F 10.0 °F 3.0 °F 50% 30.19 in 10.0 mi NNW 6.9 mph - N/A   Partly Cloudy
7:53 AM 17.1 °F 7.6 °F 1.9 °F 52% 30.23 in 10.0 mi NNW 6.9 mph - N/A   Scattered Clouds
8:53 AM 24.1 °F 15.2 °F 3.0 °F 40% 30.22 in 10.0 mi NW 8.1 mph - N/A   Mostly Cloudy
9:53 AM 27.0 °F 18.0 °F -0.0 °F 31% 30.24 in 10.0 mi NNW 9.2 mph - N/A   Mostly Cloudy
10:53 AM 28.0 °F 16.5 °F -2.9 °F 26% 30.25 in 10.0 mi NNW 15.0 mph 21.9 mph N/A   Mostly Cloudy
11:53 AM 30.0 °F 21.1 °F -6.0 °F 21% 30.25 in 10.0 mi NW 10.4 mph - N/A   Mostly Cloudy
12:53 PM 28.9 °F 21.1 °F -7.1 °F 21% 30.25 in 10.0 mi North 8.1 mph - N/A   Mostly Cloudy
1:53 PM 30.0 °F 20.0 °F -7.1 °F 20% 30.25 in 10.0 mi NW 12.7 mph - N/A   Mostly Cloudy
2:53 PM 28.0 °F 16.5 °F -5.1 °F 24% 30.27 in 10.0 mi NW 15.0 mph 20.7 mph N/A   Mostly Cloudy
3:53 PM 28.0 °F 17.5 °F 3.0 °F 34% 30.30 in 10.0 mi NNW 12.7 mph - N/A   Scattered Clouds
4:53 PM 25.0 °F 14.2 °F 3.0 °F 39% 30.32 in 10.0 mi NNW 11.5 mph - N/A   Clear
5:53 PM 23.0 °F 10.1 °F 3.9 °F 44% 30.36 in 10.0 mi NNW 15.0 mph - N/A   Clear
6:53 PM 21.0 °F 8.6 °F 5.0 °F 50% 30.39 in 10.0 mi NNW 12.7 mph - N/A   Clear
7:53 PM 21.0 °F 9.9 °F 3.9 °F 48% 30.40 in 10.0 mi NNW 10.4 mph - N/A   Clear
8:53 PM 19.0 °F 8.2 °F 3.0 °F 50% 30.37 in 10.0 mi NNW 9.2 mph - N/A   Clear
9:53 PM 19.9 °F 8.6 °F 3.0 °F 48% 30.36 in 10.0 mi NNW 10.4 mph 18.4 mph N/A   Clear
10:53 PM 15.1 °F - 1.0 °F 54% 30.37 in 10.0 mi Calm Calm - N/A   Clear
11:53 PM 17.1 °F - 3.0 °F 54% 30.36 in 10.0 mi Calm Calm - N/A   Clear